Weather History for KPSK - December, 2011

Change the Weather History Date:

Tuesday, December 27, 2011

  Actual Average (KBCB) Record (KBCB)
Temperature  
Mean Temperature 42 °F 32 °F  
Max Temperature 48 °F 42 °F 67 °F (2008)
Min Temperature 35 °F 22 °F -6 °F (1985)
Degree Days  
Heating Degree Days 24 33  
Month to date heating degree days 833  
Since 1 July heating degree days 2013  
Cooling Degree Days 0 0  
Month to date cooling degree days 0  
Year to date cooling degree days 573  
Moisture  
Dew Point 35 °F    
Average Humidity 82    
Maximum Humidity 100    
Minimum Humidity 65    
Precipitation  
Precipitation 0.09 in 0.09 in 0.50 in (1973)
Month to date precipitation 2.58  
Year to date precipitation 40.52  
Snow  
Snow 0.00 in - - ()
Month to date snowfall  
Since 1 July snowfall  
Snow Depth -    
Sea Level Pressure  
Sea Level Pressure 29.77 in    
Wind  
Wind Speed 6 mph (WSW)    
Max Wind Speed 22 mph    
Max Gust Speed 33 mph    
Visibility 8 miles    
Events Rain , Snow    
T = Trace of Precipitation, MM = Missing Value Source: NWS Daily Summary

Daily Weather History Graph

Daily Weather History Graph

Search for Another Location

Airport or City:

Trip Planner

Search our weather history database for the weather conditions in past years. The results will help you decide how hot, cold, wet, or windy it might be!

Date:

Astronomy

Dec. 27, 2011 Rise Set
Actual Time 7:35 AM EST 5:12 PM EST
Civil Twilight 7:05 AM EST 5:41 PM EST
Nautical Twilight 6:33 AM EST 6:14 PM EST
Astronomical Twilight 6:01 AM EST 6:45 PM EST
Moon 9:33 AM EST (12/27) 8:39 PM EST (12/27)
Length of Visible Light 10h 35m
Length of Day
9h 37m
Waxing Crescent, 11% of the Moon is Illuminated
Dec 27
Waxing Crescent
Jan 1
First Quarter
Jan 9
Full
Jan 16
Last Quarter
Jan 23
New

Hourly Weather History & Observations

Time (EST) Temp. Windchill Dew Point Humidity Pressure Visibility Wind Dir Wind Speed Gust Speed Precip Events Conditions
12:15 AM 35.6 °F 32.8 °F 28.4 °F 75% 30.16 in 10.0 mi ESE 3.5 mph - N/A   Clear
12:35 AM 37.4 °F - 26.6 °F 65% 30.16 in 10.0 mi Calm Calm - N/A   Clear
12:55 AM 37.4 °F - 28.4 °F 70% 30.14 in 10.0 mi Calm Calm - N/A   Clear
1:15 AM 37.4 °F - 28.4 °F 70% 30.13 in 10.0 mi Calm Calm - N/A   Clear
1:35 AM 37.4 °F - 28.4 °F 70% 30.13 in 10.0 mi Calm Calm - N/A   Clear
1:55 AM 37.4 °F - 28.4 °F 70% 30.11 in 10.0 mi Calm Calm - N/A   Clear
2:15 AM 37.4 °F - 28.4 °F 70% 30.12 in 10.0 mi Calm Calm - N/A   Clear
2:35 AM 37.4 °F - 28.4 °F 70% 30.11 in 10.0 mi Calm Calm - N/A   Clear
2:55 AM 37.4 °F - 28.4 °F 70% 30.10 in 10.0 mi Calm Calm - N/A   Clear
3:15 AM 37.4 °F - 28.4 °F 70% 30.08 in 10.0 mi Calm Calm - N/A   Clear
3:35 AM 39.2 °F - 28.4 °F 65% 30.06 in 10.0 mi Calm Calm - N/A   Clear
3:55 AM 39.2 °F - 28.4 °F 65% 30.05 in 10.0 mi Calm Calm - N/A   Scattered Clouds
4:15 AM 39.2 °F 35.0 °F 28.4 °F 65% 30.04 in 10.0 mi South 5.8 mph - N/A Rain Light Rain
4:35 AM 39.2 °F 37.0 °F 30.2 °F 70% 30.01 in 10.0 mi SSE 3.5 mph - N/A Rain Light Rain
4:55 AM 39.2 °F 33.6 °F 30.2 °F 70% 29.99 in 10.0 mi South 8.1 mph - N/A Rain Light Rain
5:15 AM 39.2 °F 33.6 °F 30.2 °F 70% 29.98 in 10.0 mi SSE 8.1 mph - N/A   Light Drizzle
5:35 AM 39.2 °F 35.0 °F 30.2 °F 70% 29.96 in 10.0 mi SSE 5.8 mph - N/A Rain Light Rain
5:55 AM 39.2 °F 35.0 °F 32.0 °F 75% 29.97 in 10.0 mi SSW 5.8 mph - N/A Rain Light Rain
6:15 AM 39.2 °F 32.5 °F 33.8 °F 81% 29.97 in 7.0 mi South 10.4 mph 16.1 mph N/A   Overcast
6:35 AM 37.4 °F 33.8 °F 33.8 °F 87% 29.94 in 10.0 mi South 4.6 mph - 0.01 in   Overcast
7:35 AM 37.4 °F 34.9 °F 35.6 °F 93% 29.88 in 10.0 mi East 3.5 mph - 0.01 in   Overcast
7:55 AM 37.4 °F - 35.6 °F 93% 29.85 in 10.0 mi Calm Calm - N/A   Overcast
8:15 AM 37.4 °F - 37.4 °F 100% 29.84 in 10.0 mi Calm Calm - N/A   Overcast
8:35 AM 37.4 °F 34.9 °F 37.4 °F 100% 29.82 in 3.0 mi East 3.5 mph - N/A   Overcast
8:55 AM 37.4 °F 33.8 °F 37.4 °F 100% 29.79 in 4.0 mi East 4.6 mph - N/A   Overcast
9:15 AM 37.4 °F - 37.4 °F 100% 29.78 in 2.0 mi Calm Calm - 0.02 in Snow Snow
9:35 AM 37.4 °F 34.9 °F 37.4 °F 100% 29.75 in 3.0 mi NNE 3.5 mph - 0.01 in   Overcast
9:55 AM 37.4 °F 32.8 °F 37.4 °F 100% 29.71 in 1.2 mi NE 5.8 mph - N/A   Overcast
10:15 AM 39.2 °F 35.9 °F 39.2 °F 100% 29.69 in - NE 4.6 mph - N/A   Drizzle
10:35 AM 41.0 °F 34.7 °F 41.0 °F 100% 29.64 in 3.0 mi ENE 10.4 mph - 0.01 in Rain Light Rain
10:55 AM 42.8 °F - 42.8 °F 100% 29.65 in 4.0 mi Calm Calm - 0.01 in Rain Light Rain
11:15 AM 42.8 °F 40.1 °F 42.8 °F 100% 29.64 in 1.0 mi NW 4.6 mph - 0.03 in Rain Rain
11:55 AM 42.8 °F 39.3 °F 42.8 °F 100% 29.57 in 1.5 mi NNW 5.8 mph - N/A Rain Light Rain
12:15 PM 42.8 °F - 42.8 °F 100% 29.56 in 2.5 mi Calm Calm - 0.01 in Rain Rain
12:35 PM 44.6 °F 43.1 °F 44.6 °F 100% 29.54 in 4.0 mi WNW 3.5 mph - N/A   Light Drizzle
1:15 PM 48.2 °F - 48.2 °F 100% 29.51 in 10.0 mi SSW 9.2 mph - N/A   Mostly Cloudy
1:35 PM 48.2 °F - 48.2 °F 100% 29.51 in 10.0 mi SW 18.4 mph - N/A   Scattered Clouds
1:55 PM 48.2 °F - 46.4 °F 93% 29.51 in 10.0 mi SW 13.8 mph 19.6 mph N/A Rain Rain
2:15 PM 48.2 °F - 46.4 °F 93% 29.52 in 5.0 mi WSW 11.5 mph 19.6 mph N/A Rain Light Rain
2:35 PM 48.2 °F - 44.6 °F 87% 29.52 in 10.0 mi WSW 13.8 mph - N/A   Overcast
2:55 PM 48.2 °F - 42.8 °F 82% 29.54 in 10.0 mi WSW 18.4 mph 24.2 mph N/A   Overcast
3:15 PM 46.4 °F 40.4 °F 42.8 °F 87% 29.55 in 10.0 mi WSW 13.8 mph - N/A   Mostly Cloudy
3:35 PM 46.4 °F 38.5 °F 41.0 °F 81% 29.55 in 10.0 mi SW 21.9 mph 33.4 mph N/A   Scattered Clouds
3:55 PM 46.4 °F 39.2 °F 39.2 °F 76% 29.54 in 10.0 mi SW 18.4 mph 21.9 mph N/A   Mostly Cloudy
4:15 PM 46.4 °F 40.4 °F 39.2 °F 76% 29.54 in 10.0 mi SW 13.8 mph - N/A   Overcast
4:35 PM 44.6 °F 37.2 °F 39.2 °F 81% 29.56 in 10.0 mi SW 17.3 mph 23.0 mph N/A   Overcast
4:55 PM 44.6 °F 37.2 °F 39.2 °F 81% 29.57 in 7.0 mi SW 17.3 mph 28.8 mph N/A   Drizzle
5:15 PM 44.6 °F 37.2 °F 39.2 °F 81% 29.57 in 7.0 mi WSW 17.3 mph - N/A   Light Drizzle
5:35 PM 44.6 °F 37.4 °F 39.2 °F 81% 29.58 in 10.0 mi WSW 16.1 mph 23.0 mph N/A   Overcast
5:55 PM 44.6 °F 38.1 °F 39.2 °F 81% 29.59 in 10.0 mi WSW 13.8 mph - N/A Rain Light Rain
6:15 PM 42.8 °F 35.8 °F 37.4 °F 81% 29.60 in 10.0 mi WSW 13.8 mph 23.0 mph N/A   Overcast
6:55 PM 42.8 °F 35.8 °F 35.6 °F 76% 29.62 in 10.0 mi West 13.8 mph - N/A   Overcast
7:15 PM 42.8 °F 36.6 °F 35.6 °F 76% 29.63 in 10.0 mi West 11.5 mph 21.9 mph N/A   Overcast
7:35 PM 42.8 °F 34.8 °F 33.8 °F 70% 29.64 in 10.0 mi West 17.3 mph 26.5 mph N/A   Overcast
7:55 PM 41.0 °F 32.5 °F 33.8 °F 76% 29.66 in 10.0 mi West 17.3 mph 25.3 mph N/A   Light Drizzle
8:35 PM 39.2 °F 30.2 °F 33.8 °F 81% 29.69 in 10.0 mi West 17.3 mph 20.7 mph N/A   Overcast
8:55 PM 39.2 °F 30.8 °F 32.0 °F 75% 29.69 in 10.0 mi West 15.0 mph 24.2 mph N/A   Overcast
9:15 PM 39.2 °F 30.8 °F 30.2 °F 70% 29.68 in 10.0 mi West 15.0 mph 27.6 mph N/A   Overcast
9:35 PM 39.2 °F 31.2 °F 32.0 °F 75% 29.68 in 10.0 mi West 13.8 mph 25.3 mph N/A   Overcast
9:55 PM 39.2 °F 31.2 °F 32.0 °F 75% 29.69 in 10.0 mi West 13.8 mph 23.0 mph N/A   Overcast
10:15 PM 39.2 °F 30.2 °F 30.2 °F 70% 29.69 in 10.0 mi West 17.3 mph 26.5 mph N/A   Overcast
10:35 PM 39.2 °F 29.8 °F 32.0 °F 75% 29.69 in 10.0 mi West 18.4 mph 26.5 mph N/A   Overcast
10:55 PM 37.4 °F 27.8 °F 32.0 °F 81% 29.69 in 10.0 mi West 17.3 mph 25.3 mph N/A   Overcast
11:15 PM 37.4 °F 27.8 °F 30.2 °F 75% 29.69 in 10.0 mi West 17.3 mph 24.2 mph N/A   Overcast
11:35 PM 37.4 °F 27.8 °F 30.2 °F 75% 29.69 in 10.0 mi West 17.3 mph 25.3 mph N/A   Overcast
11:55 PM 37.4 °F 28.5 °F 30.2 °F 75% 29.69 in 10.0 mi West 15.0 mph 25.3 mph N/A   Overcast